OVO4017 ZSAM-ZSPD

Flight info

Callsign OVO4017
Flight time 1h 18m
Altitude 37100
Route DOVPU W643 FOC W644 ANLUD B221 SHZ W58 BK
Aircraft A319/M-SDE3FGHIRWY/LB1

Departure

Time 2026-05-04 03:48
Airport Xiamen Gaoqi International Airport (ZSAM)

Arrival

Time 2026-05-04 05:07
Airport Shanghai Pudong International Airport (ZSPD)
Time Latitude Longitude Altitude Speed Heading
2026-05-04 03:23 24.53746 118.12529 59 ft 0 kts 142°
2026-05-04 03:39 24.53757 118.12521 53 ft 4 kts 144°
2026-05-04 03:39 24.53780 118.12505 57 ft 4 kts 153°
2026-05-04 03:40 24.53805 118.12494 53 ft 4 kts 169°
2026-05-04 03:40 24.53829 118.12494 51 ft 4 kts 217°
2026-05-04 03:40 24.53835 118.12500 52 ft 0 kts 235°
2026-05-04 03:42 24.53835 118.12499 52 ft 0 kts 235°
2026-05-04 03:43 24.53830 118.12492 52 ft 3 kts 235°
2026-05-04 03:43 24.53823 118.12481 60 ft 1 kts 235°
2026-05-04 03:43 24.53813 118.12467 59 ft 3 kts 233°
2026-05-04 03:43 24.53793 118.12439 52 ft 6 kts 230°
2026-05-04 03:44 24.53764 118.12401 53 ft 7 kts 231°
2026-05-04 03:44 24.53729 118.12351 57 ft 9 kts 232°
2026-05-04 03:44 24.53694 118.12289 60 ft 10 kts 262°
2026-05-04 03:44 24.53736 118.12226 57 ft 12 kts 322°
2026-05-04 03:45 24.53774 118.12178 55 ft 8 kts 277°
2026-05-04 03:45 24.53750 118.12124 61 ft 8 kts 237°
2026-05-04 03:45 24.53708 118.12072 57 ft 10 kts 228°
2026-05-04 03:45 24.53663 118.12008 59 ft 11 kts 234°
2026-05-04 03:46 24.53613 118.11933 59 ft 13 kts 233°
2026-05-04 03:46 24.53555 118.11853 62 ft 14 kts 231°
2026-05-04 03:46 24.53492 118.11768 58 ft 15 kts 232°
2026-05-04 03:46 24.53457 118.11688 62 ft 10 kts 286°
2026-05-04 03:47 24.53503 118.11640 61 ft 10 kts 320°
2026-05-04 03:47 24.53562 118.11604 59 ft 10 kts 357°
2026-05-04 03:47 24.53611 118.11646 63 ft 8 kts 51°
2026-05-04 03:47 24.53729 118.11811 54 ft 55 kts 52°
2026-05-04 03:48 24.54087 118.12308 54 ft 110 kts 52°
2026-05-04 03:48 24.54672 118.13112 98 ft 154 kts 50°
2026-05-04 03:48 24.55224 118.13971 1011 ft 131 kts 55°
2026-05-04 03:48 24.55750 118.14792 1644 ft 132 kts 50°
2026-05-04 03:49 24.56351 118.15615 2155 ft 148 kts 50°
2026-05-04 03:49 24.57048 118.16559 2588 ft 171 kts 51°
2026-05-04 03:49 24.57847 118.17649 3100 ft 196 kts 52°
2026-05-04 03:49 24.58753 118.18893 3737 ft 221 kts 52°
2026-05-04 03:50 24.59760 118.20286 4410 ft 243 kts 52°
2026-05-04 03:50 24.60834 118.21778 5333 ft 255 kts 51°
2026-05-04 03:50 24.62034 118.23269 6105 ft 267 kts 44°
2026-05-04 03:50 24.63408 118.24714 6876 ft 280 kts 41°
2026-05-04 03:51 24.64876 118.26201 7604 ft 292 kts 40°
2026-05-04 03:51 24.66373 118.27703 8428 ft 299 kts 39°
2026-05-04 03:51 24.67929 118.29264 9260 ft 307 kts 38°
2026-05-04 03:51 24.69529 118.30877 10080 ft 317 kts 38°
2026-05-04 03:52 24.71207 118.32574 10453 ft 340 kts 38°
2026-05-04 03:52 24.72999 118.34392 10779 ft 359 kts 38°
2026-05-04 03:52 24.74825 118.36323 11341 ft 369 kts 41°
2026-05-04 03:52 24.76615 118.38378 12041 ft 375 kts 43°
2026-05-04 03:53 24.78392 118.40511 12716 ft 381 kts 44°
2026-05-04 03:53 24.80182 118.42696 13373 ft 387 kts 44°
2026-05-04 03:53 24.81998 118.44913 14002 ft 393 kts 44°
2026-05-04 03:53 24.83852 118.47155 14564 ft 398 kts 44°
2026-05-04 03:54 24.85739 118.49413 15178 ft 403 kts 43°
2026-05-04 03:54 24.87655 118.51684 15778 ft 407 kts 43°
2026-05-04 03:54 24.89601 118.53967 16401 ft 410 kts 43°
2026-05-04 03:54 24.91570 118.56265 17004 ft 414 kts 43°
2026-05-04 03:55 24.93559 118.58580 17597 ft 418 kts 43°
2026-05-04 03:55 24.95567 118.60918 18208 ft 422 kts 43°
2026-05-04 03:55 24.97588 118.63275 18745 ft 425 kts 43°
2026-05-04 03:55 24.99625 118.65654 19241 ft 429 kts 43°
2026-05-04 03:56 25.01677 118.68058 19755 ft 432 kts 43°
2026-05-04 03:56 25.03741 118.70486 20275 ft 436 kts 43°
2026-05-04 03:56 25.05819 118.72935 20790 ft 439 kts 43°
2026-05-04 03:56 25.07914 118.75400 21320 ft 443 kts 42°
2026-05-04 03:57 25.10036 118.77893 21785 ft 448 kts 42°
2026-05-04 03:57 25.12177 118.80408 22257 ft 452 kts 42°
2026-05-04 03:57 25.14338 118.82945 22738 ft 455 kts 42°
2026-05-04 03:57 25.16514 118.85504 23233 ft 459 kts 42°
2026-05-04 03:58 25.20911 118.90684 24102 ft 466 kts 42°
2026-05-04 03:58 25.23134 118.93305 24502 ft 469 kts 42°
2026-05-04 03:58 25.25373 118.95947 24888 ft 473 kts 42°
2026-05-04 03:59 25.27624 118.98605 25301 ft 475 kts 42°
2026-05-04 03:59 25.29896 119.01264 25704 ft 477 kts 42°
2026-05-04 03:59 25.32189 119.03930 26085 ft 480 kts 41°
2026-05-04 03:59 25.34502 119.06611 26456 ft 483 kts 41°
2026-05-04 04:00 25.36830 119.09306 26824 ft 486 kts 41°
2026-05-04 04:00 25.39174 119.12023 27186 ft 490 kts 41°
2026-05-04 04:00 25.41500 119.14722 27542 ft 493 kts 41°
2026-05-04 04:00 25.43899 119.17517 27896 ft 496 kts 42°
2026-05-04 04:01 25.46244 119.20260 28251 ft 499 kts 42°
2026-05-04 04:01 25.48635 119.23061 28612 ft 502 kts 42°
2026-05-04 04:01 25.51041 119.25878 28991 ft 505 kts 42°
2026-05-04 04:01 25.53463 119.28712 29357 ft 508 kts 42°
2026-05-04 04:02 25.55896 119.31562 29713 ft 511 kts 42°
2026-05-04 04:02 25.58337 119.34438 30067 ft 514 kts 42°
2026-05-04 04:02 25.60788 119.37339 30376 ft 517 kts 42°
2026-05-04 04:02 25.63250 119.40261 30665 ft 520 kts 42°
2026-05-04 04:03 25.65725 119.43197 30965 ft 522 kts 42°
2026-05-04 04:03 25.68214 119.46145 31276 ft 525 kts 42°
2026-05-04 04:03 25.70712 119.49103 31573 ft 527 kts 42°
2026-05-04 04:03 25.73226 119.52080 31899 ft 530 kts 42°
2026-05-04 04:04 25.75771 119.55004 32252 ft 528 kts 38°
2026-05-04 04:04 25.78588 119.57566 32658 ft 520 kts 28°
2026-05-04 04:04 25.81640 119.59639 33098 ft 510 kts 20°
2026-05-04 04:04 25.84794 119.61431 33544 ft 509 kts 19°
2026-05-04 04:05 25.87941 119.63222 33983 ft 508 kts 19°
2026-05-04 04:05 25.91083 119.65017 34390 ft 508 kts 19°
2026-05-04 04:05 25.94221 119.66805 34792 ft 506 kts 19°
2026-05-04 04:05 25.97357 119.68574 35192 ft 506 kts 18°
2026-05-04 04:06 26.00499 119.70336 35537 ft 505 kts 18°
2026-05-04 04:06 26.03640 119.72078 35883 ft 501 kts 15°
2026-05-04 04:06 26.06859 119.73403 36268 ft 487 kts
2026-05-04 04:06 26.10123 119.74156 36650 ft 472 kts 356°
2026-05-04 04:07 26.13346 119.74370 37032 ft 457 kts 347°
2026-05-04 04:07 26.16495 119.74199 37228 ft 452 kts 345°
2026-05-04 04:07 26.22749 119.73801 37266 ft 450 kts 345°
2026-05-04 04:08 26.28999 119.73398 37271 ft 450 kts 345°
2026-05-04 04:08 26.35252 119.73003 37271 ft 450 kts 345°
2026-05-04 04:09 26.41507 119.72617 37274 ft 451 kts 346°
2026-05-04 04:09 26.44696 119.72770 37273 ft 468 kts 357°
2026-05-04 04:09 26.47874 119.73590 37302 ft 484 kts
2026-05-04 04:10 26.51004 119.75143 37287 ft 501 kts 21°
2026-05-04 04:10 26.53981 119.77209 37279 ft 505 kts 24°
2026-05-04 04:10 26.59931 119.81411 37262 ft 506 kts 24°
2026-05-04 04:11 26.65891 119.85607 37255 ft 506 kts 23°
2026-05-04 04:11 26.71860 119.89805 37291 ft 507 kts 23°
2026-05-04 04:12 26.77838 119.94013 37269 ft 508 kts 24°
2026-05-04 04:12 26.83820 119.98236 37269 ft 509 kts 24°
2026-05-04 04:13 26.89808 120.02468 37270 ft 509 kts 24°
2026-05-04 04:13 26.95803 120.06720 37287 ft 510 kts 24°
2026-05-04 04:14 27.01806 120.10986 37278 ft 511 kts 24°
2026-05-04 04:14 27.07815 120.15257 37281 ft 512 kts 24°
2026-05-04 04:15 27.13833 120.19534 37270 ft 512 kts 23°
2026-05-04 04:15 27.19860 120.23793 37300 ft 513 kts 23°
2026-05-04 04:16 27.25908 120.28051 37288 ft 513 kts 23°
2026-05-04 04:16 27.31951 120.32320 37286 ft 513 kts 23°
2026-05-04 04:17 27.37993 120.36608 37305 ft 513 kts 23°
2026-05-04 04:17 27.44044 120.40894 37276 ft 514 kts 24°
2026-05-04 04:18 27.50099 120.45205 37276 ft 515 kts 24°
2026-05-04 04:18 27.56157 120.49529 37278 ft 516 kts 24°
2026-05-04 04:19 27.62219 120.53857 37279 ft 516 kts 24°
2026-05-04 04:19 27.68282 120.58188 37286 ft 516 kts 24°
2026-05-04 04:20 27.74521 120.61945 37287 ft 498 kts
2026-05-04 04:20 27.77797 120.63035 37287 ft 484 kts
2026-05-04 04:20 27.81074 120.63583 37287 ft 470 kts 352°
2026-05-04 04:21 27.87593 120.64167 37307 ft 470 kts 352°
2026-05-04 04:21 27.94114 120.64776 37300 ft 471 kts 352°
2026-05-04 04:22 28.00644 120.65393 37295 ft 471 kts 352°
2026-05-04 04:22 28.06077 120.65901 37295 ft 471 kts 352°
2026-05-04 04:23 28.12612 120.66536 37327 ft 472 kts 352°
2026-05-04 04:23 28.19159 120.67186 37309 ft 472 kts 352°
2026-05-04 04:24 28.25704 120.67831 37301 ft 472 kts 352°
2026-05-04 04:24 28.32254 120.68484 37336 ft 472 kts 352°
2026-05-04 04:25 28.38795 120.69133 37326 ft 472 kts 352°
2026-05-04 04:25 28.45341 120.69768 37314 ft 472 kts 352°
2026-05-04 04:26 28.51885 120.70419 37305 ft 473 kts 352°
2026-05-04 04:26 28.58440 120.71081 37337 ft 473 kts 352°
2026-05-04 04:27 28.64985 120.71750 37291 ft 471 kts 352°
2026-05-04 04:27 28.71521 120.72422 37290 ft 472 kts 352°
2026-05-04 04:28 28.78069 120.73123 37286 ft 473 kts 353°
2026-05-04 04:28 28.84623 120.73852 37316 ft 473 kts 353°
2026-05-04 04:29 28.91136 120.74561 37072 ft 473 kts 352°
2026-05-04 04:29 28.94407 120.74890 36821 ft 472 kts 352°
2026-05-04 04:29 28.97677 120.75204 36576 ft 472 kts 352°
2026-05-04 04:30 29.00950 120.75512 36333 ft 473 kts 352°
2026-05-04 04:30 29.04229 120.75827 36089 ft 473 kts 352°
2026-05-04 04:30 29.07503 120.76154 35892 ft 472 kts 352°
2026-05-04 04:30 29.10772 120.76488 35655 ft 471 kts 353°
2026-05-04 04:31 29.14036 120.76826 35414 ft 470 kts 353°
2026-05-04 04:31 29.17289 120.77163 35182 ft 469 kts 353°
2026-05-04 04:31 29.20535 120.77503 34949 ft 468 kts 353°
2026-05-04 04:31 29.23769 120.77845 34721 ft 466 kts 353°
2026-05-04 04:32 29.26991 120.78189 34495 ft 465 kts 353°
2026-05-04 04:32 29.30209 120.78532 34269 ft 463 kts 353°
2026-05-04 04:32 29.33414 120.78873 34064 ft 462 kts 354°
2026-05-04 04:32 29.36607 120.79211 33797 ft 460 kts 354°
2026-05-04 04:33 29.39786 120.79545 33541 ft 457 kts 354°
2026-05-04 04:33 29.42934 120.79879 33200 ft 453 kts 354°
2026-05-04 04:33 29.46065 120.80212 32734 ft 451 kts 354°
2026-05-04 04:33 29.49185 120.80541 32275 ft 449 kts 354°
2026-05-04 04:34 29.52294 120.80869 31817 ft 448 kts 355°
2026-05-04 04:34 29.55396 120.81422 31398 ft 458 kts
2026-05-04 04:34 29.58417 120.82733 30892 ft 472 kts 21°
2026-05-04 04:34 29.61166 120.84858 30427 ft 481 kts 37°
2026-05-04 04:35 29.63450 120.87693 29908 ft 487 kts 52°
2026-05-04 04:35 29.65316 120.90934 29448 ft 485 kts 55°
2026-05-04 04:35 29.67155 120.94164 28986 ft 481 kts 54°
2026-05-04 04:35 29.68990 120.97363 28527 ft 477 kts 54°
2026-05-04 04:36 29.70815 121.00533 28081 ft 474 kts 54°
2026-05-04 04:36 29.72639 121.03695 27625 ft 473 kts 54°
2026-05-04 04:36 29.74452 121.06841 27187 ft 472 kts 54°
2026-05-04 04:36 29.76261 121.09990 26687 ft 471 kts 54°
2026-05-04 04:37 29.81601 121.19352 25321 ft 462 kts 55°
2026-05-04 04:37 29.83363 121.22445 24783 ft 462 kts 55°
2026-05-04 04:38 29.85109 121.25512 24489 ft 455 kts 55°
2026-05-04 04:38 29.86845 121.28562 24033 ft 455 kts 54°
2026-05-04 04:38 29.88667 121.31522 23595 ft 450 kts 46°
2026-05-04 04:38 29.90901 121.33983 23164 ft 440 kts 32°
2026-05-04 04:39 29.93445 121.35838 22716 ft 428 kts 22°
2026-05-04 04:39 29.96048 121.37468 22310 ft 423 kts 22°
2026-05-04 04:39 29.98618 121.39077 21905 ft 416 kts 22°
2026-05-04 04:39 30.01142 121.40657 21236 ft 409 kts 22°
2026-05-04 04:40 30.03620 121.42212 20604 ft 402 kts 22°
2026-05-04 04:40 30.06049 121.43738 20013 ft 393 kts 23°
2026-05-04 04:40 30.08420 121.45230 19462 ft 384 kts 23°
2026-05-04 04:40 30.10738 121.46688 18895 ft 375 kts 23°
2026-05-04 04:41 30.12720 121.47932 18578 ft 370 kts 25°
2026-05-04 04:41 30.13218 121.48245 18532 ft 368 kts 25°
2026-05-04 04:41 30.15442 121.49638 18213 ft 360 kts 25°
2026-05-04 04:41 30.17628 121.51008 17835 ft 355 kts 25°
2026-05-04 04:42 30.19783 121.52356 17434 ft 350 kts 25°
2026-05-04 04:42 30.21912 121.53690 17053 ft 346 kts 24°
2026-05-04 04:42 30.24013 121.55008 16666 ft 342 kts 25°
2026-05-04 04:42 30.26091 121.56314 16262 ft 338 kts 25°
2026-05-04 04:43 30.28144 121.57625 15869 ft 335 kts 25°
2026-05-04 04:43 30.30172 121.58936 15477 ft 332 kts 26°
2026-05-04 04:43 30.32178 121.60243 15089 ft 330 kts 26°
2026-05-04 04:43 30.34168 121.61541 14707 ft 327 kts 26°
2026-05-04 04:44 30.36151 121.62833 14233 ft 328 kts 26°
2026-05-04 04:44 30.38125 121.64139 13810 ft 326 kts 27°
2026-05-04 04:44 30.40062 121.65480 13401 ft 323 kts 28°
2026-05-04 04:44 30.41967 121.66826 13005 ft 319 kts 28°
2026-05-04 04:45 30.43852 121.68167 12621 ft 316 kts 28°
2026-05-04 04:45 30.45717 121.69495 12239 ft 314 kts 28°
2026-05-04 04:45 30.47569 121.70812 11857 ft 311 kts 28°
2026-05-04 04:47 30.58900 121.76690 9737 ft 286 kts 349°
2026-05-04 04:47 30.60789 121.76083 9574 ft 279 kts 340°
2026-05-04 04:47 30.62634 121.75383 9454 ft 279 kts 340°
2026-05-04 04:47 30.64475 121.74695 9312 ft 278 kts 340°
2026-05-04 04:48 30.66311 121.74012 9168 ft 277 kts 341°
2026-05-04 04:49 30.73574 121.71281 8593 ft 272 kts 340°
2026-05-04 04:49 30.75371 121.70601 8454 ft 271 kts 341°
2026-05-04 04:49 30.77165 121.69923 8318 ft 270 kts 341°
2026-05-04 04:49 30.78949 121.69250 8164 ft 269 kts 341°
2026-05-04 04:50 30.80720 121.68581 8039 ft 267 kts 341°
2026-05-04 04:50 30.82461 121.67924 7900 ft 266 kts 341°
2026-05-04 04:50 30.84216 121.67266 7750 ft 264 kts 341°
2026-05-04 04:50 30.85941 121.66621 7620 ft 257 kts 341°
2026-05-04 04:51 30.87620 121.65989 7472 ft 250 kts 341°
2026-05-04 04:51 30.89249 121.65370 7365 ft 242 kts 341°
2026-05-04 04:51 30.90877 121.65084 7251 ft 237 kts
2026-05-04 04:51 30.92388 121.65786 7133 ft 238 kts 34°
2026-05-04 04:52 30.93356 121.67336 6982 ft 242 kts 65°
2026-05-04 04:52 30.93875 121.69190 6833 ft 238 kts 68°
2026-05-04 04:52 30.94312 121.71030 6684 ft 236 kts 79°
2026-05-04 04:52 30.94125 121.72921 6545 ft 239 kts 108°
2026-05-04 04:53 30.93201 121.74507 6407 ft 237 kts 139°
2026-05-04 04:53 30.91793 121.75404 6278 ft 228 kts 164°
2026-05-04 04:53 30.90309 121.75951 6158 ft 221 kts 164°
2026-05-04 04:53 30.88852 121.76498 6032 ft 219 kts 163°
2026-05-04 04:54 30.87405 121.77044 5912 ft 218 kts 163°
2026-05-04 04:54 30.85964 121.77589 5809 ft 217 kts 163°
2026-05-04 04:54 30.84534 121.78129 5692 ft 216 kts 163°
2026-05-04 04:54 30.83111 121.78668 5586 ft 214 kts 163°
2026-05-04 04:55 30.81696 121.79203 5477 ft 213 kts 163°
2026-05-04 04:55 30.80292 121.79735 5367 ft 212 kts 163°
2026-05-04 04:55 30.78890 121.80264 5259 ft 212 kts 164°
2026-05-04 04:55 30.77490 121.80787 5139 ft 211 kts 163°
2026-05-04 04:56 30.76095 121.81308 5022 ft 210 kts 163°
2026-05-04 04:56 30.74818 121.82105 4904 ft 210 kts 137°
2026-05-04 04:56 30.73985 121.83469 4782 ft 207 kts 109°
2026-05-04 04:56 30.73749 121.85082 4663 ft 202 kts 83°
2026-05-04 04:57 30.74079 121.86646 4562 ft 199 kts 68°
2026-05-04 04:57 30.74514 121.88173 4434 ft 199 kts 69°
2026-05-04 04:57 30.74935 121.89684 4328 ft 199 kts 69°
2026-05-04 04:57 30.75437 121.91199 4219 ft 197 kts 53°
2026-05-04 04:58 30.76431 121.92225 4132 ft 191 kts 21°
2026-05-04 04:58 30.77691 121.92492 4020 ft 187 kts 352°
2026-05-04 04:58 30.78932 121.92098 3919 ft 185 kts 340°
2026-05-04 04:58 30.80155 121.91631 3807 ft 185 kts 340°
2026-05-04 04:59 30.81377 121.91170 3701 ft 185 kts 340°
2026-05-04 04:59 30.82603 121.90709 3618 ft 186 kts 340°
2026-05-04 04:59 30.83832 121.90248 3536 ft 186 kts 340°
2026-05-04 04:59 30.85061 121.89787 3444 ft 185 kts 340°
2026-05-04 05:00 30.86285 121.89327 3353 ft 185 kts 340°
2026-05-04 05:00 30.87509 121.88868 3245 ft 185 kts 340°
2026-05-04 05:00 30.89968 121.87944 3077 ft 185 kts 340°
2026-05-04 05:01 30.91192 121.87484 3031 ft 185 kts 339°
2026-05-04 05:01 30.92420 121.87023 3031 ft 185 kts 339°
2026-05-04 05:01 30.93647 121.86562 3034 ft 185 kts 340°
2026-05-04 05:01 30.94875 121.86101 3017 ft 185 kts 340°
2026-05-04 05:02 30.96103 121.85639 3016 ft 185 kts 340°
2026-05-04 05:02 30.97288 121.85194 3000 ft 173 kts 340°
2026-05-04 05:02 30.98410 121.84772 2844 ft 167 kts 340°
2026-05-04 05:02 30.99496 121.84363 2658 ft 161 kts 340°
2026-05-04 05:03 31.00554 121.83965 2457 ft 159 kts 340°
2026-05-04 05:03 31.01574 121.83580 2248 ft 149 kts 340°
2026-05-04 05:04 31.04334 121.82541 1703 ft 132 kts 340°
2026-05-04 05:04 31.05200 121.82214 1527 ft 131 kts 340°
2026-05-04 05:04 31.06081 121.81882 1347 ft 134 kts 340°
2026-05-04 05:06 31.12208 121.79571 156 ft 127 kts 343°
2026-05-04 05:06 31.13051 121.79260 48 ft 126 kts 344°
2026-05-04 05:06 31.13783 121.78983 22 ft 92 kts 341°
2026-05-04 05:07 31.14161 121.78861 22 ft 9 kts 20°
2026-05-04 05:07 31.14237 121.78885 22 ft 13 kts
2026-05-04 05:07 31.14335 121.78902 23 ft 15 kts 12°
2026-05-04 05:09 31.14759 121.78920 24 ft 5 kts 71°
2026-05-04 05:09 31.14769 121.78958 24 ft 6 kts 72°
2026-05-04 05:10 31.14783 121.79007 24 ft 7 kts 72°
2026-05-04 05:10 31.14800 121.79068 25 ft 9 kts 71°
2026-05-04 05:10 31.14820 121.79143 28 ft 10 kts 72°
2026-05-04 05:10 31.14844 121.79226 24 ft 11 kts 70°
2026-05-04 05:11 31.14873 121.79316 23 ft 12 kts 68°
2026-05-04 05:11 31.14893 121.79412 24 ft 12 kts 73°
2026-05-04 05:11 31.14922 121.79505 23 ft 12 kts 72°
2026-05-04 05:11 31.14930 121.79599 24 ft 12 kts 109°
2026-05-04 05:12 31.14918 121.79652 23 ft 6 kts 84°
2026-05-04 05:12 31.14929 121.79693 23 ft 5 kts 71°
2026-05-04 05:12 31.14941 121.79731 24 ft 5 kts 71°
2026-05-04 05:12 31.14944 121.79743 23 ft 0 kts 72°